Weather History for Caribou, ME

Change the Weather History Date:

Thursday, June 20, 2013

  Actual Average Record
Temperature  
Mean Temperature 59 °F 62 °F  
Max Temperature 74 °F 73 °F 91 °F (1988)
Min Temperature 43 °F 51 °F 35 °F (1986)
Degree Days  
Heating Degree Days 6 4  
Month to date heating degree days 136 130  
Since 1 June heating degree days 136 130  
Since 1 July heating degree days 8499 9319  
Cooling Degree Days 0 1  
Month to date cooling degree days 5 17  
Year to date cooling degree days 13 22  
Since 1 June cooling degree days 5 17  
Growing Degree Days 8 (Base 50)    
Moisture  
Dew Point 43 °F    
Average Humidity 64    
Maximum Humidity 96    
Minimum Humidity 31    
Precipitation  
Precipitation 0.00 in 0.12 in 1.86 in (2010)
Month to date precipitation 3.57 2.22  
Year to date precipitation 17.59 15.64  
Snow  
Snow 0.00 in 0.00 in 0.00 in (2002)
Month to date snowfall 0.0 0.0  
Since 1 June snowfall 0.0 0.0  
Since 1 July snowfall 106.9 108.7  
Snow Depth 0.00 in    
Sea Level Pressure  
Sea Level Pressure 30.15 in    
Wind  
Wind Speed 5 mph (SW)    
Max Wind Speed 16 mph    
Max Gust Speed 23 mph    
Visibility 10 miles    
Events      
T = Trace of Precipitation, MM = Missing Value Source: NWS Daily Summary

Daily Weather History Graph

Daily Weather History Graph

Search for Another Location

Airport:

Trip Planner

Search our weather history database for the weather conditions in past years. The results will help you decide how hot, cold, wet, or windy it might be!

Date:

Astronomy

Jun. 20, 2013 Rise Set
Actual Time 4:37 AM EDT 8:30 PM EDT
Civil Twilight 3:57 AM EDT 9:09 PM EDT
Nautical Twilight 3:03 AM EDT 10:04 PM EDT
Astronomical Twilight 1:42 AM EDT 11:25 PM EDT
Moon 5:21 PM EDT (6/20) 2:10 AM EDT (6/20)
Length of Visible Light 17h 12m
Length of Day
15h 52m
Waxing Gibbous, 89% of the Moon is Illuminated
Jun 20
Waxing Gibbous
Jun 23
Full
Jun 30
Last Quarter
Jul 8
New
Jul 15
First Quarter

Hourly Weather History & Observations

Time (EDT) Temp. Windchill Dew Point Humidity Pressure Visibility Wind Dir Wind Speed Gust Speed Precip Events Conditions
12:54 AM 48.0 °F - 43.0 °F 83% 30.11 in 10.0 mi Calm Calm - N/A   Clear
1:54 AM 48.0 °F - 43.0 °F 83% 30.12 in 10.0 mi WSW 4.6 mph - N/A   Clear
2:54 AM 46.0 °F - 42.1 °F 86% 30.13 in 10.0 mi Calm Calm - N/A   Clear
3:54 AM 46.0 °F - 43.0 °F 89% 30.14 in 10.0 mi Calm Calm - N/A   Clear
4:54 AM 43.0 °F 41.3 °F 41.0 °F 93% 30.15 in 10.0 mi SSW 3.5 mph - N/A   Clear
5:54 AM 46.0 °F - 44.1 °F 93% 30.17 in 10.0 mi Calm Calm - N/A   Scattered Clouds
6:54 AM 51.1 °F - 46.0 °F 83% 30.19 in 10.0 mi Calm Calm - N/A   Clear
7:54 AM 55.9 °F - 46.9 °F 72% 30.20 in 10.0 mi Calm Calm - N/A   Clear
8:54 AM 61.0 °F - 48.0 °F 62% 30.20 in 10.0 mi Variable 3.5 mph - N/A   Clear
9:54 AM - - - N/A% 30.18 in - Variable 3.5 mph - N/A   Clear
10:54 AM - - - N/A% 30.17 in - WSW 6.9 mph - N/A   Clear
11:54 AM 70.0 °F - 43.0 °F 38% 30.17 in 10.0 mi SSW 9.2 mph - 0.00 in   Mostly Cloudy
12:54 PM 70.0 °F - 42.1 °F 36% 30.17 in 10.0 mi SW 8.1 mph - N/A   Overcast
1:54 PM 71.1 °F - 39.9 °F 32% 30.16 in 10.0 mi WSW 10.4 mph - N/A   Mostly Cloudy
2:54 PM 71.1 °F - 39.9 °F 32% 30.15 in 10.0 mi West 9.2 mph - N/A   Scattered Clouds
3:54 PM 73.0 °F - 42.1 °F 33% 30.14 in 10.0 mi SW 11.5 mph 17.3 mph N/A   Overcast
4:54 PM 73.0 °F - 42.1 °F 33% 30.13 in 10.0 mi WSW 9.2 mph - N/A   Clear
5:54 PM 72.0 °F - 41.0 °F 33% 30.12 in 10.0 mi SW 10.4 mph - N/A   Scattered Clouds
6:54 PM 71.1 °F - 45.0 °F 39% 30.12 in 10.0 mi SW 4.6 mph - N/A   Partly Cloudy
7:54 PM 66.9 °F - 45.0 °F 45% 30.13 in 10.0 mi SW 3.5 mph - N/A   Partly Cloudy
8:54 PM 64.0 °F - 43.0 °F 46% 30.14 in 10.0 mi West 5.8 mph - N/A   Clear
9:54 PM 60.1 °F - 44.1 °F 55% 30.13 in 10.0 mi WSW 4.6 mph - N/A   Clear
10:54 PM 57.0 °F - 44.1 °F 62% 30.13 in 10.0 mi WSW 4.6 mph - N/A   Clear
11:54 PM 54.0 °F - 44.1 °F 69% 30.15 in 10.0 mi WSW 3.5 mph - N/A   Clear